#timestamp,LO_Frequency,Hit,StdDev 
1626778815.5,286046997.8,P
1626778835.4,286046997.5,P
1626778855.2,286046997.9,P
1626778875.1,286046995.6,Y
1626778876.0,286046995.6,P
1626778895.8,286046998.9,N
1626778915.6,286046998.4,N
1626778935.5,286046998.3,N
1626778955.3,286047000.3,N
1626778975.1,286047002.6,N
1626778995.9,286047002.2,N
1626779015.7,286047002.3,N
1626779035.6,286047002.4,N
1626779055.4,286047002.2,N
1626779075.2,286047001.6,N
1626779095.1,286047001.6,N
1626779096.0,286047001.6,N
1626779115.8,286047001.6,N
1626779135.0,286047004.4,N
1626779135.9,286047004.4,N
1626779155.8,286047001.7,N
1626779175.6,286047004.1,N
1626779195.5,286047001.4,N
1626779215.3,286047004.4,N
1626779235.1,286047001.3,N
1626779255.9,286047001.8,N
1626779275.7,286047004.4,N
1626779295.5,286047001.7,N
1626779315.4,286047001.3,N
1626779335.2,286047003.8,N
1626779355.0,286047003.0,N
1626779355.9,286047003.0,N
1626779375.8,286047002.9,N
1626779395.6,286047003.5,N
1626779415.5,286047003.6,N
1626779435.3,286047003.6,N
1626779455.2,286047001.8,N
1626779475.0,286047001.3,N
1626779475.9,286047001.3,N
1626779495.7,286047004.3,Y
1626779515.6,286046998.2,P
1626779535.4,286046998.4,N
1626779555.3,286046999.3,N
1626779575.1,286046998.9,N
1626779576.0,286046998.9,N
1626779595.8,286046998.7,N
1626779615.7,286046999.5,N
1626779635.5,286046997.8,N
1626779655.4,286046996.0,Y
1626779675.2,286046996.1,P
1626779695.0,286046995.5,N
1626779695.9,286046995.5,N
1626779715.8,286046995.7,N
1626779735.6,286046995.1,Y
1626779755.5,286046999.8,P
1626779775.3,286047002.3,N
1626779795.1,286047001.6,N
1626779815.9,286047002.3,N
1626779835.7,286047001.3,N
1626779855.5,286047004.0,N
1626779875.4,286047004.3,N
1626779895.2,286047003.9,N
1626779915.1,286047004.2,N
1626779916.0,286047004.2,N
1626779935.8,286047002.5,N
1626779955.6,286047000.1,N
1626779975.5,286047000.9,N
1626779995.3,286047000.5,N
1626780015.2,286047000.4,N
1626780035.9,286047000.8,N
1626780055.7,286046998.7,N
1626780075.6,286046998.9,N
1626780095.4,286046999.3,N
1626780115.2,286046996.5,N
1626780135.1,286046996.9,N
1626780136.0,286046996.9,N
1626780155.8,286046997.9,N
1626780175.7,286046997.4,N
1626780195.5,286046997.2,N
1626780215.3,286046997.5,N
1626780235.2,286046996.5,N
1626780255.0,286046996.8,N
1626780255.9,286046996.8,N
1626780275.8,286046996.8,N
1626780295.6,286046999.5,N
1626780315.4,286046999.5,N
1626780335.3,286046997.2,N
1626780355.1,286046996.9,N
1626780375.8,286046996.5,N
1626780395.7,286046996.5,N
1626780415.5,286046999.6,N
1626780435.3,286046998.4,N
1626780455.2,286046998.1,N
1626780475.0,286047000.5,N
1626780475.9,286047000.5,N
1626780495.8,286047000.6,N
1626780515.6,286047000.0,N
1626780535.4,286047000.6,N
1626780555.3,286047000.8,N
1626780575.1,286046998.7,N
1626780595.9,286046998.4,N
1626780615.7,286046998.7,N
1626780635.5,286046998.1,N
1626780655.4,286047000.6,N
1626780675.2,286047000.7,N
1626780695.0,286046999.9,N
1626780695.9,286046999.9,N
1626780715.8,286047000.2,N
1626780735.6,286047000.4,N
1626780755.5,286047000.6,N
1626780775.3,286047001.0,N
1626780795.1,286047000.6,N
1626780815.9,286047000.8,N
1626780835.7,286047000.0,N
1626780855.5,286047001.1,N
1626780875.4,286046998.5,N
1626780895.2,286046999.1,N
1626780915.1,286046998.3,N
1626780916.0,286046998.3,N
1626780935.8,286046998.2,N
1626780955.6,286047000.3,N
1626780975.5,286047001.6,N
1626780995.3,286047004.4,Y
1626781015.1,286047003.6,P
1626781035.9,286047003.0,N
1626781055.7,286047005.9,P
1626781075.6,286047003.0,N
1626781095.4,286047005.6,N
1626781115.2,286047003.0,N
1626781135.1,286047005.4,N
1626781136.0,286047005.4,N
1626781155.8,286047005.8,Y
1626781175.7,286046999.9,P
1626781195.5,286047003.7,N
1626781215.3,286047005.9,P
1626781235.2,286047003.3,N
1626781255.0,286047004.1,N
1626781255.9,286047004.1,N
1626781275.7,286047003.9,N
1626781295.6,286047002.4,N
1626781315.4,286047002.2,N
1626781335.3,286047004.2,N
1626781355.1,286047001.3,N
1626781356.0,286047001.3,N
1626781375.8,286047001.8,N
1626781395.7,286047001.7,N
1626781415.5,286047002.1,N
1626781435.3,286047004.4,N
1626781455.2,286047001.4,N
1626781475.0,286047004.4,N
1626781475.9,286047004.4,N
1626781495.8,286047004.2,N
1626781515.6,286047004.1,N
1626781535.4,286047003.1,N
1626781555.3,286047003.1,N
1626781575.1,286047001.3,N
1626781595.8,286047001.7,N
1626781615.7,286047001.8,N
1626781635.5,286047002.1,N
1626781655.4,286047001.8,N
1626781675.2,286046999.8,N
1626781695.0,286047000.6,N
1626781695.9,286047000.6,N
1626781715.8,286047000.7,N
1626781735.6,286047001.2,N
1626781755.5,286046999.5,N
1626781775.3,286046996.5,N
1626781795.1,286046997.1,N
1626781815.9,286046996.8,N
1626781835.7,286046997.7,N
1626781855.5,286046995.3,N
1626781875.4,286046997.8,N
1626781895.2,286046997.9,N
1626781915.1,286046995.5,N
1626781916.0,286046995.5,N
1626781935.8,286046995.4,N
1626781955.6,286046995.8,N
1626781975.5,286046993.9,N
1626781995.3,286046992.1,N
1626782015.1,286046992.3,N
1626782035.9,286046991.0,N
1626782055.7,286046991.5,N
1626782075.6,286046990.7,N
1626782095.4,286046993.2,N
1626782115.2,286046990.7,N
1626782135.1,286046990.6,N
1626782136.0,286046990.6,N
1626782155.8,286046990.9,N
1626782175.7,286046992.8,N
1626782195.5,286046993.2,N
1626782215.3,286046990.1,N
1626782235.2,286046990.8,N
1626782255.0,286046988.6,Y
1626782255.9,286046988.6,P
1626782275.7,286046994.1,N
1626782295.6,286046991.7,P
1626782315.4,286046991.7,Y
1626782335.3,286047000.0,P
1626782355.1,286047000.6,N
1626782375.8,286047000.0,N
1626782395.7,286046999.7,N
